星链-3999 (STARLINK-3999 )

导读

STARLINK-3999是美国SpaceX公司星链(Starlink)星座中的一颗低轨通信卫星,于2022年5月18日发射入轨。星链计划旨在构建全球卫星互联网,为偏远地区和网络覆盖不足区域提供高速低延迟宽带服务。作为星链组网卫星之一,STARLINK-3999运行在近地轨道,参与星座的全球互联网络建设,增强星座的通信覆盖能力,助力实现全球无死角互联网接入的目标。

基本信息
目录编号:
52704
目录名称:
STARLINK-3999
国际标识:
2022-053BA
轨道中心:
EARTH
卫星名称:
星链-3999
卫星全名:
星链-3999 (STARLINK-3999 )
卫星状态:
在轨 (已飞行1570 天)
发射日期:
2022-05-18 UTC
国别 :
美国 (US)
星等 :
--
轨道信息
数据来源 国际轨道数据
星历时间: 2026-09-04T03:51:14+0800
11小时前
查看轨道信息
半长轴: 6837.917km
偏心率: 0.0001105
轨道倾角: 53.161°
近地点辐角 87.689°
升交点赤经 44.948°
平近点角 272.424°
近地点: 459.024km
远地点: 460.536km
周期: 93.788分钟
每日圈数: 15.353841
详细信息
固有亮度:
5
最大亮度:
2.5
卫星平台:
Starlink v1.5
覆盖范围:
全球
运营商:
太空探索技术公司
运营商所在国:
美国
制造商(研发单位):
太空探索技术公司
制造商所在国:
美国
使用方式:
暂无
卫星简介
星链(Starlink)计划是由太空探索技术公司(SpaceX)提出的一个巨型低轨卫星互联网星座项目,计划在2019年至2024年间在太空搭建由约1.2万颗卫星组成的“星链”网络,其中1584颗将部署在地球上空550千米处的近地轨道,并从2020年开始工作。该卫星仍在工作。
2D轨道图
3D轨道图
轨道高度分析图
轨道倾角分析图
轨道综合分析图
查看轨道综合分析图